This is the latest recevied weather packets stored in our database for station/object KC9MWQ-13. If no packets are shown the sender has not sent any weather packets the latest 10 day(s).
| Time | Temp. | Humidity | Pressure | Rain* | Wind** | Luminosity | Snow |
|---|---|---|---|---|---|---|---|
| 1777692032 | 3.89° C | 83% | 1019.5 hPa | 0 mm | - | 0 W/m² | - |
| 1777691730 | 3.89° C | 83% | 1019.6 hPa | 0 mm | - | 0 W/m² | - |
| 1777691428 | 3.33° C | 83% | 1019.5 hPa | 0 mm | - | 0 W/m² | - |
| 1777691126 | 3.33° C | 83% | 1019.6 hPa | 0 mm | - | 0 W/m² | - |
| 1777690824 | 3.89° C | 82% | 1019.4 hPa | 0 mm | - | 0 W/m² | - |
| 1777690521 | 3.89° C | 82% | 1019.5 hPa | 0 mm | - | 0 W/m² | - |
| 1777690219 | 3.89° C | 82% | 1019.3 hPa | 0 mm | - | 0 W/m² | - |
| 1777689916 | 3.89° C | 81% | 1019.3 hPa | 0 mm | - | 0 W/m² | - |
| 1777689615 | 4.44° C | 80% | 1019.3 hPa | 0 mm | - | 0 W/m² | - |
| 1777689312 | 4.44° C | 81% | 1019.2 hPa | 0 mm | - | 0 W/m² | - |
| 1777689009 | 4.44° C | 81% | 1019.3 hPa | 0 mm | - | 0 W/m² | - |
| 1777688705 | 4.44° C | 80% | 1018.9 hPa | 0 mm | - | 0 W/m² | - |
| 1777688403 | 5° C | 79% | 1019.1 hPa | 0 mm | - | 0 W/m² | - |
| 1777688100 | 5° C | 78% | 1018.9 hPa | 0 mm | - | 0 W/m² | - |
| 1777687796 | 5.56° C | 78% | 1018.7 hPa | 0 mm | - | 0 W/m² | - |
| 1777687495 | 5.56° C | 77% | 1018.9 hPa | 0 mm | - | 0 W/m² | - |
| 1777687191 | 5.56° C | 76% | 1018.7 hPa | 0 mm | - | 0 W/m² | - |
| 1777686889 | 5.56° C | 77% | 1018.7 hPa | 0 mm | - | 0 W/m² | - |
| 1777686585 | 5° C | 78% | 1018.3 hPa | 0 mm | - | 0 W/m² | - |
| 1777686282 | 5° C | 79% | 1018.4 hPa | 0 mm | - | 0 W/m² | - |
| 1777685979 | 5° C | 78% | 1018.4 hPa | 0 mm | - | 0 W/m² | - |
| 1777685674 | 5.56° C | 77% | 1018.4 hPa | 0 mm | - | 0 W/m² | - |
| 1777685371 | 5.56° C | 76% | 1018 hPa | 0 mm | - | 0 W/m² | - |
| 1777685069 | 6.11° C | 75% | 1018 hPa | 0 mm | - | 0 W/m² | - |
| 1777684766 | 6.11° C | 74% | 1018.1 hPa | 0 mm | - | 0 W/m² | - |
* Rain latest hour (hover to see other rain measurements)
** Current wind speed in m/s (hover to see current wind gust speed)